Terminal Aerodrome Forecast
Issued by NWS Charleston, WV

Current Version | Previous Version | Text Only | Print | Product List | Glossary Off
Versions: 1 2 3 4 5 6 7 8 9 10 11 12 13 14 15 16 17 18 19 20 21

822
FTUS41 KRLX 030523
TAFPKB
TAF
KPKB 030523Z 0306/0406 00000KT 6SM BR BKN008 OVC015
     FM031500 32004KT P6SM BKN015
     FM031800 31006KT P6SM BKN025
     FM032100 31007KT P6SM SCT025
      AMD NOT SKED=

USA.gov is the U.S. government's official web portal to all federal, state and local government web resources and services.